| time (UTC) | temp F | wind direction | speed knots | gust knots | rain 1hr in | rain 24hr in | rain mn in | humidity % | barometer mb |
| 20260509044509 | 58 | 148 | 0.0 | 0.0 | 0.00 | 0.00 | 0.00 | 87 | 1010.2 |
| 20260509043009 | 58 | 148 | 0.0 | 0.0 | 0.00 | 0.00 | 0.00 | 87 | 1010.4 |
| 20260509041510 | 58 | 148 | 0.0 | 0.0 | 0.00 | 0.00 | 0.00 | 86 | 1010.3 |
| 20260509040015 | 59 | 148 | 0.0 | 0.0 | 0.00 | 0.00 | 0.00 | 85 | 1010.6 |
| 20260509034513 | 59 | 148 | 0.0 | 0.0 | 0.00 | 0.00 | 0.00 | 84 | 1010.5 |
| 20260509033014 | 60 | 148 | 0.0 | 0.0 | 0.00 | 0.00 | 0.00 | 83 | 1010.8 |
| 20260509031529 | 60 | 148 | 0.0 | 0.0 | 0.00 | 0.00 | 0.00 | 82 | 1011.1 |
| 20260509030019 | 60 | 148 | 0.0 | 0.0 | 0.00 | 0.00 | 0.00 | 81 | 1011.1 |
| 20260509024532 | 61 | 148 | 0.0 | 0.0 | 0.00 | 0.00 | 0.00 | 81 | 1011.1 |
| 20260509023023 | 61 | 148 | 0.0 | 0.0 | 0.00 | 0.00 | 0.00 | 79 | 1011.2 |
| 20260509021528 | 62 | 148 | 0.0 | 0.0 | 0.00 | 0.00 | 0.00 | 79 | 1011.4 |
| 20260509020035 | 62 | 148 | 0.0 | 0.0 | 0.00 | 0.00 | 0.00 | 77 | 1011.0 |
| 20260509014542 | 62 | 148 | 0.0 | 0.0 | 0.00 | 0.00 | 0.00 | 77 | 1011.1 |
| 20260509013110 | 62 | 148 | 0.0 | 0.0 | 0.00 | 0.00 | 0.00 | 76 | 1011.2 |
| 20260509013004 | 62 | 148 | 0.0 | 0.0 | 0.00 | 0.00 | 0.00 | 76 | 1011.2 |
| 20260509011506 | 62 | 148 | 0.0 | 0.0 | 0.00 | 0.00 | 0.00 | 75 | 1010.9 |
| 20260509010025 | 63 | 148 | 0.0 | 0.0 | 0.00 | 0.00 | 0.00 | 74 | 1010.8 |
| 20260509004529 | 63 | 148 | 0.0 | 0.0 | 0.00 | 0.00 | 0.00 | 73 | 1010.8 |
| 20260509003027 | 63 | 148 | 0.0 | 0.0 | 0.00 | 0.00 | 0.00 | 73 | 1010.8 |
| 20260509001529 | 64 | 148 | 0.0 | 0.0 | 0.00 | 0.00 | 0.00 | 71 | 1010.9 |
| 20260509000029 | 65 | 148 | 0.0 | 0.0 | 0.00 | 0.00 | 0.00 | 71 | 1010.9 |
| 20260508234531 | 65 | 148 | 0.0 | 0.0 | 0.00 | 0.00 | 0.00 | 71 | 1010.8 |
| 20260508233045 | 66 | 148 | 0.0 | 0.0 | 0.00 | 0.00 | 0.00 | 69 | 1010.7 |
| 20260508231551 | 66 | 148 | 0.0 | 0.0 | 0.00 | 0.00 | 0.00 | 68 | 1010.7 |
| 20260508230049 | 66 | 148 | 0.0 | 0.0 | 0.00 | 0.00 | 0.00 | 68 | 1010.4 |
| 20260508224553 | 67 | 148 | 0.0 | 0.0 | 0.00 | 0.00 | 0.00 | 69 | 1010.5 |
| 20260508223047 | 67 | 148 | 0.0 | 0.0 | 0.00 | 0.00 | 0.00 | 67 | 1010.5 |
| 20260508221558 | 67 | 148 | 0.0 | 0.0 | 0.00 | 0.00 | 0.00 | 64 | 1010.7 |
| 20260508220052 | 68 | 148 | 0.0 | 0.0 | 0.00 | 0.00 | 0.00 | 64 | 1010.6 |
| 20260508214608 | 68 | 148 | 0.0 | 0.0 | 0.00 | 0.00 | 0.00 | 63 | 1010.6 |
| 20260508213059 | 68 | 148 | 0.0 | 0.0 | 0.00 | 0.00 | 0.00 | 61 | 1010.7 |
| 20260508211508 | 68 | 148 | 0.0 | 0.0 | 0.00 | 0.00 | 0.00 | 61 | 1010.7 |
| 20260508210032 | 68 | 148 | 0.0 | 0.0 | 0.00 | 0.00 | 0.00 | 61 | 1010.7 |
| 20260508204529 | 68 | 148 | 0.0 | 0.0 | 0.00 | 0.00 | 0.00 | 58 | 1010.7 |
| 20260508203035 | 68 | 148 | 0.0 | 0.0 | 0.00 | 0.00 | 0.00 | 57 | 1010.8 |
| 20260508201521 | 68 | 148 | 0.0 | 0.0 | 0.00 | 0.00 | 0.00 | 57 | 1011.0 |
| 20260508200007 | 68 | 148 | 0.0 | 0.0 | 0.00 | 0.00 | 0.00 | 54 | 1010.8 |
| 20260508194506 | 68 | 148 | 0.0 | 0.0 | 0.00 | 0.00 | 0.00 | 57 | 1011.1 |
| 20260508193012 | 69 | 148 | 0.0 | 0.0 | 0.00 | 0.00 | 0.00 | 53 | 1011.7 |
| 20260508191532 | 69 | 144 | 0.0 | 0.0 | 0.00 | 0.00 | 0.00 | 50 | 1011.6 |
| 20260508190040 | 70 | 144 | 0.0 | 0.0 | 0.00 | 0.00 | 0.00 | 53 | 1012.0 |
| 20260508184519 | 69 | 164 | 0.0 | 0.0 | 0.00 | 0.00 | 0.00 | 54 | 1012.1 |
| 20260508183018 | 69 | 164 | 0.0 | 0.0 | 0.00 | 0.00 | 0.00 | 50 | 1012.5 |
| 20260508181539 | 69 | 155 | 0.0 | 0.0 | 0.00 | 0.00 | 0.00 | 55 | 1012.4 |
| 20260508180024 | 69 | 155 | 0.0 | 0.0 | 0.00 | 0.00 | 0.00 | 57 | 1012.5 |
| 20260508174529 | 69 | 155 | 0.0 | 0.0 | 0.00 | 0.00 | 0.00 | 53 | 1012.9 |
| 20260508173053 | 69 | 307 | 0.0 | 0.0 | 0.00 | 0.00 | 0.00 | 52 | 1012.9 |
| 20260508171518 | 70 | 5 | 0.0 | 0.0 | 0.00 | 0.00 | 0.00 | 54 | 1013.3 |
| 20260508170022 | 69 | 22 | 0.0 | 0.9 | 0.00 | 0.00 | 0.00 | 58 | 1013.3 |
| 20260508164533 | 68 | 315 | 0.0 | 3.5 | 0.00 | 0.00 | 0.00 | 57 | 1013.7 |
| 20260508163019 | 68 | 235 | 0.0 | 0.0 | 0.00 | 0.00 | 0.00 | 62 | 1013.8 |
| 20260508161520 | 67 | 166 | 0.0 | 0.0 | 0.00 | 0.00 | 0.00 | 63 | 1014.0 |
| 20260508160034 | 66 | 159 | 0.0 | 0.0 | 0.00 | 0.00 | 0.00 | 65 | 1014.5 |
| 20260508154524 | 66 | 342 | 0.0 | 0.0 | 0.00 | 0.00 | 0.00 | 65 | 1014.6 |
| 20260508153024 | 65 | 208 | 0.0 | 0.0 | 0.00 | 0.00 | 0.00 | 67 | 1014.7 |
| 20260508151526 | 63 | 107 | 0.0 | 0.0 | 0.00 | 0.00 | 0.00 | 70 | 1014.7 |
| 20260508150026 | 62 | 10 | 0.0 | 0.0 | 0.00 | 0.01 | 0.00 | 71 | 1014.8 |
| 20260508144525 | 62 | 327 | 0.0 | 0.0 | 0.00 | 0.01 | 0.00 | 74 | 1014.9 |
| 20260508143044 | 61 | 306 | 0.0 | 0.0 | 0.00 | 0.01 | 0.00 | 75 | 1014.9 |
| 20260508141557 | 60 | 293 | 0.0 | 0.0 | 0.00 | 0.01 | 0.00 | 76 | 1014.8 |
| 20260508140055 | 58 | 234 | 0.0 | 0.0 | 0.00 | 0.08 | 0.00 | 82 | 1014.7 |
| 20260508134554 | 56 | 229 | 0.0 | 0.0 | 0.00 | 0.08 | 0.00 | 84 | 1014.8 |
| 20260508133059 | 55 | 182 | 0.0 | 0.0 | 0.00 | 0.08 | 0.00 | 91 | 1015.0 |
| 20260508131602 | 54 | 182 | 0.0 | 0.0 | 0.00 | 0.08 | 0.00 | 95 | 1015.0 |
| 20260508130042 | 53 | 182 | 0.0 | 0.0 | 0.00 | 0.17 | 0.00 | 96 | 1014.9 |
| 20260508124523 | 52 | 182 | 0.0 | 0.0 | 0.00 | 0.17 | 0.00 | 96 | 1014.8 |
| 20260508123004 | 52 | 182 | 0.0 | 0.0 | 0.00 | 0.17 | 0.00 | 97 | 1014.7 |
| 20260508121504 | 51 | 182 | 0.0 | 0.0 | 0.00 | 0.17 | 0.00 | 97 | 1014.7 |
| 20260508120100 | 50 | 182 | 0.0 | 0.0 | 0.00 | 0.30 | 0.00 | 97 | 1014.4 |
| 20260508120001 | 50 | 182 | 0.0 | 0.0 | 0.00 | 0.30 | 0.00 | 97 | 1014.4 |
| 20260508114503 | 49 | 182 | 0.0 | 0.0 | 0.00 | 0.30 | 0.00 | 96 | 1014.0 |
| 20260508113100 | 49 | 182 | 0.0 | 0.0 | 0.00 | 0.30 | 0.00 | 96 | 1013.6 |
| 20260508113004 | 49 | 182 | 0.0 | 0.0 | 0.00 | 0.30 | 0.00 | 96 | 1013.6 |
| 20260508111505 | 49 | 182 | 0.0 | 0.0 | 0.00 | 0.30 | 0.00 | 95 | 1013.2 |
| 20260508110007 | 49 | 182 | 0.0 | 0.0 | 0.00 | 0.37 | 0.00 | 95 | 1013.0 |
| 20260508104507 | 49 | 182 | 0.0 | 0.0 | 0.00 | 0.37 | 0.00 | 95 | 1012.9 |
| 20260508103025 | 49 | 182 | 0.0 | 0.0 | 0.00 | 0.37 | 0.00 | 95 | 1012.6 |
| 20260508101521 | 49 | 182 | 0.0 | 0.0 | 0.00 | 0.37 | 0.00 | 94 | 1012.3 |
| 20260508100018 | 49 | 182 | 0.0 | 0.0 | 0.00 | 0.46 | 0.00 | 94 | 1011.9 |
| 20260508094617 | 50 | 182 | 0.0 | 0.0 | 0.00 | 0.46 | 0.00 | 94 | 1011.9 |
| 20260508094501 | 50 | 182 | 0.0 | 0.0 | 0.00 | 0.46 | 0.00 | 94 | 1012.0 |
| 20260508093059 | 50 | 182 | 0.0 | 0.0 | 0.00 | 0.46 | 0.00 | 94 | 1011.8 |
| 20260508093000 | 50 | 182 | 0.0 | 0.0 | 0.00 | 0.46 | 0.00 | 94 | 1011.8 |
| 20260508091504 | 50 | 182 | 0.0 | 0.0 | 0.00 | 0.46 | 0.00 | 94 | 1011.9 |
| 20260508090008 | 51 | 182 | 0.0 | 0.0 | 0.00 | 0.47 | 0.00 | 94 | 1011.7 |
| 20260508084511 | 51 | 182 | 0.0 | 0.0 | 0.00 | 0.47 | 0.00 | 94 | 1011.7 |
| 20260508083012 | 51 | 182 | 0.0 | 0.0 | 0.00 | 0.47 | 0.00 | 94 | 1011.4 |
| 20260508081511 | 52 | 182 | 0.0 | 0.0 | 0.00 | 0.47 | 0.00 | 94 | 1011.2 |
| 20260508080011 | 52 | 182 | 0.0 | 0.0 | 0.00 | 0.47 | 0.00 | 94 | 1011.2 |
| 20260508074551 | 52 | 182 | 0.0 | 0.0 | 0.00 | 0.47 | 0.00 | 94 | 1011.3 |
| 20260508073052 | 53 | 182 | 0.0 | 0.0 | 0.00 | 0.47 | 0.00 | 95 | 1011.3 |
| 20260508071553 | 53 | 182 | 0.0 | 0.0 | 0.00 | 0.47 | 0.00 | 94 | 1011.4 |
| 20260508071503 | 53 | 182 | 0.0 | 0.0 | 0.00 | 0.47 | 0.00 | 94 | 1011.4 |
| 20260508070059 | 53 | 182 | 0.0 | 0.0 | 0.00 | 0.50 | 0.00 | 95 | 1011.6 |
| 20260508064610 | 54 | 182 | 0.0 | 0.0 | 0.00 | 0.50 | 0.00 | 94 | 1011.4 |
| 20260508064507 | 54 | 182 | 0.0 | 0.0 | 0.00 | 0.50 | 0.00 | 94 | 1011.4 |
| 20260508063005 | 54 | 182 | 0.0 | 0.0 | 0.00 | 0.50 | 0.00 | 95 | 1011.6 |
| 20260508061512 | 54 | 182 | 0.0 | 0.0 | 0.00 | 0.50 | 0.00 | 95 | 1011.8 |
| 20260508060005 | 55 | 182 | 0.0 | 0.0 | 0.00 | 0.59 | 0.00 | 95 | 1011.9 |
| 20260508054506 | 55 | 182 | 0.0 | 0.0 | 0.00 | 0.59 | 0.00 | 95 | 1011.8 |
| 20260508053019 | 55 | 182 | 0.0 | 0.0 | 0.00 | 0.59 | 0.00 | 94 | 1011.9 |
| 20260508051514 | 55 | 182 | 0.0 | 0.0 | 0.00 | 0.59 | 0.00 | 94 | 1011.9 |
| 20260508050020 | 55 | 182 | 0.0 | 0.0 | 0.00 | 1.17 | 0.00 | 94 | 1012.0 |